HELLAS-SAT 2

Last updated on Wed Sep 17 2025 00:02:46 GMT+0000 (Coordinated Universal Time)

1 27811U 03020A 25259.28976223 -.00000100 00000+0 00000+0 0 9996 2 27811 6.6680 71.1412 0008125 136.0990 242.6064 1.00271884 40107
UTC large
Height (km)
Speed (km/s)
/
Latitude / Longitude
Inclination (degrees)
Orbital Period (minutes)
Azimuth
Elevation
Range (km)
Doppler Factor

Next 0 passes for location: London (51.5072 / 0.1276)

Sorry there are no passes over London.